Location: Il Ritiro
(43.4167°N, 13.1333°E)
Time: 01:16:59
(UTC+00:00)

Cosmos 2237 Rocket - Pass Details

Date: 05 July 2020
Orbit: 835 x 850 km, 71.0° (Epoch: 11 August)

Event Time Altitude Azimuth Distance (km) Brightness Sun altitude
Exits shadow 20:32:47 19° 121° (ESE) 1,920 3.5 -14.4°
Maximum altitude 20:34:14 21° 100° (E) 1,829 3.5 -14.6°
Drops below altitude 10° 20:38:20 10° 54° (NE) 2,482 4.6 -15.1°
Sets 20:41:21 0° 39° (NE) 3,423 5.6 -15.4°
